STARLINK-3785, 52375

Orbit data source: Space-Track

STARLINK-3785, 52375 is a payload satellite owned by SpaceX/Seattle (US) in LEO that was launched on Fri, 29 Apr 2022 UTC via an FALCON 9 launch vehicle from the Air Force Eastern Test Range (AFETR). Payload-class satellites include a variety of spacecraft equipped with specific instruments for various scientific and technological missions. These include communications satellites like Starlink; space stations such as the ISS; scientific satellites like the Hubble; Earth observation satellites from companies like Planet Labs, Umbra, and HawkEye 360; GPS; miniature CubeSats for education and research; and military/defense satellites.

Loading next visibility...
Identifier
52375, 2022-045AW
Orbit
LEO
Country
Flag of USUS
Related business
Manufacturer
SpaceX/Seattle
Mission
Operational Commercial Communications
Bus & Motor
STARLINK, Unknown motor
Mass
297 kg wet, ~275 kg dry
Launch date (UTC)
2022-04-29 (4 years ago)
Launch vehicle
FALCON 9
Launch site
Air Force Eastern Test Range (AFETR)
Object type
Payload
Rocket body
Debris
Shape & HBR
Box + 1 Pan, 10.1 m
Radar Cross Section
11.087 m², Large (>1 m²)

Expand to show TLE details & history
Last TLE update: 2 days ago

TLE from 2 days ago
0 STARLINK-3785
1 52375U 22045AW  26170.96452341 -.00002517  00000-0 -14014-3 0  9995
2 52375  53.1606  89.8806 0001292  93.2084 266.9055 15.08832973231368
Epoch: 2026-06-19T23:08Z
TLE epoch observation values (Epoch: 2026-06-19T23:08:54.822Z)
Latitude
-0.00005°
Longitude
-165.53381°
Altitude
540.705 km
Speed
7.593 km/s
True Right ascension
05h 59m 31s
True Declination
0° 00' 00"
Sunlit
Object was in daylight at epoch
Visualization orbit readout
Latitude
Unknown
Longitude
Unknown
Altitude
Unknown
Speed
Unknown
Apparent Right ascension
Unknown
Apparent Declination
Unknown
Sunlit
N/A
Visualization observer readout
Local Sidereal Time
21:41:01
Azimuth
Unknown
Elevation
Unknown
Doppler factor
Unknown
Orbital elements
Apogee altitude
540.913 km
Perigee altitude
539.125 km
Semi-major axis
6,918.156 km
Eccentricity
0.00013
Inclination
53.1606°
RAAN
89.8806°
Arg. of periapsis
93.2084°
True anomaly
266.89072°
Mean anomaly
266.9055°
Eccentric anomaly
266.89811°
Mean motion
3.77188 °/min
Orbital period
95.44 mins
BSTAR
-0.00014014
Loading maneuver chart data...
Computing Atmospheric mass density...
Loading historical data...
Loading historical data...
Loading historical data...
Loading historical data...
Loading historical data...
Loading historical data...
Loading historical data...

Documentation

Showing up to 5 results
|